Franklin, NC

6:47 AM EDT on June 25, 2017 (GMT -0400)
Franklin

Weather History for K1A5 - May, 2014

Change the Weather History Date:

Thursday, May 15, 2014

  Actual Average (KTOC) Record (KTOC)
Temperature  
Mean Temperature 58 °F -  
Max Temperature 68 °F 80 °F 91 °F (2017)
Min Temperature 48 °F 56 °F 45 °F (2016)
Degree Days  
Heating Degree Days 7    
Growing Degree Days 8 (Base 50)    
Moisture  
Dew Point 54 °F    
Average Humidity 84    
Maximum Humidity 100    
Minimum Humidity 62    
Precipitation  
Precipitation 0.77 in - - ()
Sea Level Pressure  
Sea Level Pressure 29.99 in    
Wind  
Wind Speed 4 mph (NW)    
Max Wind Speed 14 mph    
Max Gust Speed 23 mph    
Visibility 9 miles    
Events Rain    
Averages and records for this station are not official NWS values.
T = Trace of Precipitation, MM = Missing Value Source: NWS Daily Summary

Daily Weather History Graph

Daily Weather History Graph

Search for Another Location

Airport or City:

Trip Planner

Search our weather history database for the weather conditions in past years. The results will help you decide how hot, cold, wet, or windy it might be!

Date:

Astronomy

May. 15, 2014 Rise Set
Actual Time 6:29 AM EDT 8:30 PM EDT
Civil Twilight 6:01 AM EDT 8:59 PM EDT
Nautical Twilight 5:27 AM EDT 9:33 PM EDT
Astronomical Twilight 4:50 AM EDT 10:10 PM EDT
Moon 9:37 PM EDT (5/15) 7:15 AM EDT (5/15)
Length of Visible Light 14h 57m
Length of Day
14h 01m
Full, 99% of the Moon is Illuminated
May 15
Full
May 21
Last Quarter
May 28
New
Jun 5
First Quarter
Jun 13
Full

Hourly Weather History & Observations

Time (EDT) Temp. Dew Point Humidity Pressure Visibility Wind Dir Wind Speed Gust Speed Precip Events Conditions
12:15 AM 62.2 °F 62.2 °F 100% 30.03 in 4.0 mi Calm Calm - 0.06 in Rain Heavy Rain
12:35 AM 61.9 °F 61.9 °F 100% 30.01 in 2.0 mi Calm Calm - 0.26 in Rain Heavy Rain
12:55 AM 61.7 °F 61.7 °F 100% 30.01 in 2.5 mi East 3.5 mph - 0.38 in Rain Rain
1:15 AM 61.5 °F 61.5 °F 100% 30.01 in 7.0 mi East 4.6 mph - 0.04 in Rain Rain
1:35 AM 61.7 °F 61.7 °F 100% 30.00 in 5.0 mi ESE 3.5 mph - 0.10 in Rain Heavy Rain
1:55 AM 61.7 °F 61.7 °F 100% 29.99 in 7.0 mi East 3.5 mph - 0.15 in Rain Rain
2:15 AM 61.7 °F 61.7 °F 100% 29.98 in 5.0 mi Calm Calm - 0.04 in Rain Rain
2:35 AM 61.7 °F 61.7 °F 100% 29.98 in 7.0 mi East 3.5 mph - 0.08 in Rain Rain
2:55 AM 61.9 °F 61.9 °F 100% 29.98 in 10.0 mi Calm Calm - 0.08 in Rain Light Rain
3:15 AM 62.4 °F 62.4 °F 100% 29.98 in 10.0 mi SE 3.5 mph - 0.01 in Rain Light Rain
3:35 AM 62.6 °F 62.6 °F 100% 29.99 in 10.0 mi Calm Calm - 0.02 in Rain Rain
3:55 AM 62.6 °F 62.6 °F 100% 29.99 in 7.0 mi SSE 3.5 mph - 0.05 in Rain Rain
4:15 AM 62.6 °F 62.2 °F 99% 29.99 in 7.0 mi Calm Calm - 0.02 in Rain Light Rain
4:35 AM 61.7 °F 61.7 °F 100% 29.98 in 10.0 mi Calm Calm - 0.04 in Rain Rain
4:55 AM 61.3 °F 61.3 °F 100% 29.98 in 7.0 mi Calm Calm - 0.07 in Rain Rain
5:15 AM 61.0 °F 61.0 °F 100% 29.97 in 7.0 mi Calm Calm - 0.02 in Rain Light Rain
5:35 AM 60.8 °F 60.8 °F 100% 29.96 in 10.0 mi Calm Calm - 0.03 in Rain Light Rain
5:55 AM 60.8 °F 60.8 °F 100% 29.96 in 10.0 mi Calm Calm - 0.03 in   Drizzle
6:15 AM 61.0 °F 61.0 °F 100% 29.97 in 10.0 mi Calm Calm - 0.01 in   Overcast
6:35 AM 60.8 °F 60.8 °F 100% 29.97 in 10.0 mi Calm Calm - 0.01 in Rain Light Rain
6:55 AM 61.2 °F 60.8 °F 99% 29.97 in 10.0 mi SSE 5.8 mph - 0.01 in   Mostly Cloudy
7:15 AM 60.8 °F 60.8 °F 100% 29.97 in 10.0 mi Calm Calm - N/A   Overcast
7:35 AM 60.8 °F 60.8 °F 100% 29.96 in 10.0 mi SE 3.5 mph - N/A   Overcast
7:55 AM 61.2 °F 61.2 °F 100% 29.96 in 10.0 mi SE 3.5 mph - N/A   Mostly Cloudy
8:15 AM 61.7 °F 61.3 °F 99% 29.97 in 10.0 mi SSE 5.8 mph - N/A   Overcast
8:35 AM 61.7 °F 61.5 °F 99% 29.97 in 10.0 mi SE 4.6 mph - N/A   Overcast
8:55 AM 62.1 °F 61.3 °F 97% 29.98 in 10.0 mi SSE 3.5 mph - N/A   Overcast
9:15 AM 62.2 °F 61.3 °F 97% 29.98 in 7.0 mi South 5.8 mph - N/A   Overcast
9:35 AM 62.6 °F 61.5 °F 96% 29.98 in 10.0 mi SSE 5.8 mph - N/A   Overcast
9:55 AM 63.3 °F 61.2 °F 93% 29.97 in 10.0 mi SSE 3.5 mph - N/A   Overcast
10:15 AM 64.2 °F 60.6 °F 88% 29.97 in 10.0 mi Calm Calm - N/A   Overcast
10:35 AM 64.9 °F 60.8 °F 86% 29.98 in 10.0 mi South 3.5 mph - N/A   Overcast
10:55 AM 66.2 °F 60.1 °F 81% 29.97 in 10.0 mi SSE 5.8 mph - N/A   Overcast
11:15 AM 68.4 °F 61.3 °F 78% 29.97 in 10.0 mi SE 5.8 mph - N/A   Overcast
11:35 AM 68.0 °F 59.2 °F 73% 29.97 in 10.0 mi SE 6.9 mph - N/A   Overcast
11:55 AM 66.6 °F 60.1 °F 80% 29.97 in 7.0 mi SSE 3.5 mph - N/A Rain Light Rain
12:15 PM 68.0 °F 60.6 °F 77% 29.96 in 10.0 mi South 3.5 mph - N/A   Overcast
12:35 PM 68.2 °F 60.1 °F 75% 29.96 in 10.0 mi South 3.5 mph - N/A Rain Rain
12:55 PM 68.9 °F 60.1 °F 73% 29.96 in 10.0 mi South 4.6 mph - N/A   Overcast
1:35 PM 68.0 °F 58.6 °F 72% 29.96 in 10.0 mi WNW 5.8 mph - N/A   Overcast
1:55 PM 66.9 °F 58.1 °F 73% 29.96 in 10.0 mi NNW 6.9 mph - N/A   Overcast
2:15 PM 63.9 °F 55.9 °F 75% 29.97 in 10.0 mi NNW 8.1 mph - N/A   Overcast
3:15 PM 60.3 °F 52.7 °F 76% 29.98 in 10.0 mi NW 9.2 mph - N/A   Overcast
3:55 PM 59.4 °F 51.3 °F 75% 29.98 in 10.0 mi WNW 8.1 mph - N/A   Overcast
4:15 PM 59.5 °F 51.1 °F 74% 29.98 in 10.0 mi NW 9.2 mph - N/A   Overcast
4:35 PM 58.3 °F 49.3 °F 72% 29.98 in 10.0 mi North 8.1 mph 19.6 mph N/A   Overcast
4:55 PM 57.2 °F 48.0 °F 71% 29.99 in 10.0 mi NNW 13.8 mph 23.0 mph N/A   Overcast
5:15 PM 57.4 °F 48.4 °F 72% 29.99 in 10.0 mi NW 9.2 mph 17.3 mph N/A   Overcast
5:35 PM 56.7 °F 47.5 °F 71% 30.00 in 10.0 mi NW 11.5 mph 18.4 mph N/A   Mostly Cloudy
5:55 PM 56.5 °F 47.3 °F 71% 30.00 in 10.0 mi North 12.7 mph 21.9 mph N/A   Mostly Cloudy
6:15 PM 55.8 °F 46.2 °F 70% 30.01 in 10.0 mi NW 9.2 mph 18.4 mph N/A   Overcast
6:35 PM 56.5 °F 45.0 °F 65% 30.02 in 10.0 mi NNW 11.5 mph 17.3 mph N/A   Scattered Clouds
6:55 PM 55.0 °F 42.1 °F 62% 30.02 in 10.0 mi WNW 10.4 mph 23.0 mph N/A   Clear
7:15 PM 54.5 °F 42.4 °F 64% 30.02 in 10.0 mi NW 10.4 mph 23.0 mph N/A   Clear
7:35 PM 53.6 °F 42.8 °F 67% 30.02 in 10.0 mi WNW 12.7 mph 18.4 mph N/A   Clear
7:55 PM 52.9 °F 42.4 °F 68% 30.02 in 10.0 mi WNW 10.4 mph 21.9 mph N/A   Clear
8:15 PM 52.2 °F 42.3 °F 69% 30.03 in 10.0 mi WNW 10.4 mph 18.4 mph N/A   Scattered Clouds
8:35 PM 51.8 °F 42.3 °F 70% 30.02 in 10.0 mi NW 10.4 mph 19.6 mph N/A   Overcast
8:55 PM 51.3 °F 40.8 °F 67% 30.03 in 10.0 mi NW 11.5 mph 18.4 mph N/A   Overcast
9:15 PM 50.5 °F 39.9 °F 67% 30.03 in 10.0 mi NW 10.4 mph 16.1 mph N/A   Mostly Cloudy
9:35 PM 50.2 °F 39.6 °F 67% 30.03 in 10.0 mi NW 9.2 mph 17.3 mph N/A   Scattered Clouds
9:55 PM 49.8 °F 39.6 °F 68% 30.04 in 10.0 mi NNW 4.6 mph 16.1 mph N/A   Clear
10:15 PM 48.6 °F 40.3 °F 73% 30.04 in 10.0 mi North 5.8 mph - N/A   Clear
10:35 PM 48.4 °F 40.5 °F 74% 30.05 in 10.0 mi NW 5.8 mph - N/A   Clear
10:55 PM 48.2 °F 40.5 °F 75% 30.06 in 10.0 mi NW 3.5 mph - N/A   Clear
11:15 PM 48.2 °F 40.5 °F 75% 30.06 in 10.0 mi North 4.6 mph - N/A   Clear
11:35 PM 48.2 °F 40.8 °F 76% 30.07 in 10.0 mi NNE 3.5 mph - N/A   Mostly Cloudy
11:55 PM 48.0 °F 40.8 °F 76% 30.07 in 10.0 mi Calm Calm - N/A   Scattered Clouds